Location: Hillern
(53.0557°N, 9.8577°E)
Time: 01:58:29
(UTC+00:00)

SWARM A - Pass Details

Date: 19 May 2025
Orbit: 436 x 441 km, 87.3° (Epoch: 23 June)

Event Time Altitude Azimuth Distance (km) Brightness Sun altitude
Exits shadow 20:50:15 14° 167° (SSE) 1,345 6.1 -10.4°
Maximum altitude 20:53:03 60° 90° (E) 518 4.4 -10.6°
Drops below altitude 10° 20:56:25 10° 9° (N) 1,578 7.8 -10.9°
Sets 20:58:30 0° 6° (N) 2,454 8.9 -11.1°
